Location: Recife
(8.0585°S, 34.8848°W)
Time: 09:34:05
(UTC-03:00)

Courier 1B Rocket - Pass Details

Date: 20 April 2026
Orbit: 920 x 1201 km, 28.2° (Epoch: 13 May)

Event Time Altitude Azimuth Distance (km) Brightness Sun altitude
Rises 12:56:22 0° 249° (WSW) 3,988 8.4 58.7°
Reaches altitude 10° 12:59:11 10° 252° (WSW) 3,057 8.0 58.1°
Maximum altitude 13:06:40 58° 329° (NNW) 1,360 8.0 56.6°
Drops below altitude 10° 13:14:20 10° 47° (NE) 3,122 7.7 55.1°
Sets 13:17:14 0° 51° (NE) 4,077 8.1 54.5°
